TimePDT,TemperatureF,Dew PointF,Humidity,Sea Level PressureIn,VisibilityMPH,Wind Direction,Wind SpeedMPH,Gust SpeedMPH,PrecipitationIn,Events,Conditions,WindDirDegrees,DateUTC
12:53 AM,61.0,53.1,75,30.01,10.0,Calm,Calm,-,N/A,,Clear,0,2013-09-23 07:53:00
1:53 AM,57.9,52.0,81,30.01,10.0,Calm,Calm,-,N/A,,Clear,0,2013-09-23 08:53:00
2:53 AM,57.0,52.0,83,30.00,10.0,Calm,Calm,-,N/A,,Clear,0,2013-09-23 09:53:00
3:53 AM,57.0,52.0,83,29.99,10.0,Calm,Calm,-,N/A,,Clear,0,2013-09-23 10:53:00
4:53 AM,55.9,51.1,84,29.99,10.0,Calm,Calm,-,N/A,,Clear,0,2013-09-23 11:53:00
5:53 AM,55.9,52.0,87,30.00,10.0,Calm,Calm,-,N/A,,Clear,0,2013-09-23 12:53:00
6:53 AM,55.0,51.1,86,30.01,10.0,Calm,Calm,-,N/A,,Clear,0,2013-09-23 13:53:00
7:53 AM,57.0,52.0,83,30.02,10.0,Calm,Calm,-,N/A,,Clear,0,2013-09-23 14:53:00
8:53 AM,62.1,53.1,72,30.03,10.0,ESE,3.5,-,N/A,,Clear,120,2013-09-23 15:53:00
9:53 AM,66.0,53.1,63,30.03,10.0,Calm,Calm,-,N/A,,Clear,0,2013-09-23 16:53:00
10:53 AM,69.1,53.1,57,30.02,10.0,North,3.5,-,N/A,,Clear,350,2013-09-23 17:53:00
11:53 AM,71.1,52.0,51,30.01,10.0,NW,6.9,-,N/A,,Clear,310,2013-09-23 18:53:00
12:53 PM,73.0,52.0,48,29.99,10.0,West,9.2,-,N/A,,Clear,280,2013-09-23 19:53:00
1:53 PM,75.9,52.0,43,29.97,10.0,WNW,10.4,-,N/A,,Partly Cloudy,300,2013-09-23 20:53:00
2:53 PM,78.1,52.0,40,29.95,10.0,WNW,8.1,-,N/A,,Clear,290,2013-09-23 21:53:00
3:53 PM,79.0,53.1,40,29.94,10.0,NW,13.8,-,N/A,,Clear,310,2013-09-23 22:53:00
4:53 PM,78.1,53.1,42,29.93,10.0,WNW,17.3,-,N/A,,Clear,300,2013-09-23 23:53:00
5:53 PM,75.0,59.0,57,29.93,10.0,NW,17.3,-,N/A,,Clear,310,2013-09-24 00:53:00
6:53 PM,71.1,60.1,68,29.94,10.0,NW,15.0,-,N/A,,Clear,320,2013-09-24 01:53:00
7:53 PM,68.0,61.0,78,29.95,10.0,NW,12.7,-,N/A,,Clear,320,2013-09-24 02:53:00
8:53 PM,66.9,61.0,81,29.97,10.0,NNW,5.8,-,N/A,,Clear,340,2013-09-24 03:53:00
9:53 PM,66.9,60.1,79,29.98,10.0,North,4.6,-,N/A,,Clear,360,2013-09-24 04:53:00
10:53 PM,66.0,59.0,78,29.98,10.0,North,3.5,-,N/A,,Clear,10,2013-09-24 05:53:00
11:53 PM,64.9,57.9,78,29.97,10.0,Calm,Calm,-,N/A,,Clear,0,2013-09-24 06:53:00